EW4757 Weather Reports


Display with metric or nautical units.
time (UTC)temp
F
wind
direction
speed
MPH
gust
MPH
rain 1hr
in
rain 24hr
in
rain mn
in
humidity
%
barometer
mb
20260506073505 69 318 3.0 8.0 0.00 0.00 0.00 60 1007.8
20260506073004 69 302 3.0 8.0 0.00 0.00 0.00 60 1007.8
20260506072501 69 303 3.0 6.0 0.00 0.00 0.00 60 1007.9
20260506072102 69 319 3.0 6.0 0.00 0.00 0.00 60 1008.0
20260506071624 69 305 3.0 7.0 0.00 0.00 0.00 59 1008.0
20260506071057 69 306 3.0 7.0 0.00 0.00 0.00 59 1008.0
20260506070558 69 320 3.0 7.0 0.00 0.00 0.00 59 1008.1
20260506062049 70 300 2.0 6.0 0.00 0.00 0.00 56 1008.6
20260506061548 70 308 1.0 6.0 0.00 0.00 0.00 55 1008.7
20260506061047 70 293 2.0 6.0 0.00 0.00 0.00 55 1008.7
20260506060548 71 309 1.0 6.0 0.00 0.00 0.00 55 1008.6
20260506051042 71 319 1.0 5.0 0.00 0.00 0.00 53 1008.9
20260506050540 71 112 1.0 5.0 0.00 0.00 0.00 52 1009.0
20260506045039 72 300 2.0 5.0 0.00 0.00 0.00 51 1009.2
20260506044539 72 320 2.0 5.0 0.00 0.00 0.00 51 1009.1
20260506044040 72 347 2.0 5.0 0.00 0.00 0.00 50 1009.1
20260506043537 72 302 2.0 5.0 0.00 0.00 0.00 50 1009.2
20260506043047 72 292 2.0 5.0 0.00 0.00 0.00 50 1009.1
20260506042536 72 304 2.0 6.0 0.00 0.00 0.00 49 1009.1
20260506042037 72 312 3.0 6.0 0.00 0.00 0.00 49 1009.1
20260506041538 72 327 2.0 6.0 0.00 0.00 0.00 49 1009.2
20260506041034 72 300 2.0 7.0 0.00 0.00 0.00 49 1009.2
20260506040533 73 309 3.0 7.0 0.00 0.00 0.00 48 1009.0
20260506040044 72 297 2.0 5.0 0.00 0.00 0.00 48 1009.1
20260506035533 73 312 1.0 8.0 0.00 0.00 0.00 48 1009.0
20260506035032 73 306 2.0 8.0 0.00 0.00 0.00 48 1008.9
20260506034532 73 295 4.0 7.0 0.00 0.00 0.00 47 1008.9
20260506034032 72 298 3.0 6.0 0.00 0.00 0.00 47 1008.9
20260506033531 72 321 2.0 5.0 0.00 0.00 0.00 47 1008.8
20260506033031 72 300 2.0 6.0 0.00 0.00 0.00 47 1008.8
20260506032531 72 297 2.0 6.0 0.00 0.00 0.00 47 1008.9
20260506032031 72 307 1.0 4.0 0.00 0.00 0.00 46 1008.8
20260506031531 72 319 1.0 6.0 0.00 0.00 0.00 46 1009.0
20260506031031 72 302 1.0 4.0 0.00 0.00 0.00 46 1009.0
20260506030532 73 290 1.0 4.0 0.00 0.00 0.00 45 1009.0
20260506030030 73 296 1.0 4.0 0.00 0.00 0.00 44 1008.9
20260506025530 73 316 1.0 4.0 0.00 0.00 0.00 44 1008.9
20260506025033 73 287 2.0 4.0 0.00 0.00 0.00 43 1008.9
20260506024540 73 304 1.0 7.0 0.00 0.00 0.00 42 1009.0
20260506024031 73 310 1.0 7.0 0.00 0.00 0.00 42 1008.9
20260506023530 73 295 2.0 8.0 0.00 0.00 0.00 41 1008.9
20260506023028 74 333 0.0 8.0 0.00 0.00 0.00 41 1008.8
20260506022529 74 301 0.0 8.0 0.00 0.00 0.00 40 1008.9
20260506022030 74 283 1.0 8.0 0.00 0.00 0.00 40 1008.9
20260506021543 74 299 1.0 6.0 0.00 0.00 0.00 40 1008.9
20260506021028 74 290 3.0 9.0 0.00 0.00 0.00 40 1008.9
20260506020531 74 303 2.0 7.0 0.00 0.00 0.00 40 1009.0
20260506020029 74 307 1.0 4.0 0.00 0.00 0.00 39 1009.0
20260506015529 74 314 0.0 4.0 0.00 0.00 0.00 39 1008.9
20260506015029 74 321 0.0 3.0 0.00 0.00 0.00 39 1008.8
20260506014528 75 331 1.0 3.0 0.00 0.00 0.00 38 1008.8
20260506014027 75 306 1.0 4.0 0.00 0.00 0.00 38 1008.8
20260506013527 75 305 1.0 4.0 0.00 0.00 0.00 37 1008.7
20260506013027 75 312 1.0 4.0 0.00 0.00 0.00 37 1008.7
20260506012527 75 313 0.0 5.0 0.00 0.00 0.00 36 1008.6
20260506012028 76 312 1.0 5.0 0.00 0.00 0.00 36 1008.5
20260506011529 76 300 2.0 5.0 0.00 0.00 0.00 35 1008.5
20260506011030 76 302 1.0 5.0 0.00 0.00 0.00 35 1008.4
20260506010527 76 335 2.0 5.0 0.00 0.00 0.00 35 1008.4
20260506010031 76 323 1.0 5.0 0.00 0.00 0.00 34 1008.4
20260506005525 76 293 1.0 6.0 0.00 0.00 0.00 34 1008.3
20260506005029 77 153 2.0 8.0 0.00 0.00 0.00 33 1008.2
20260506004524 77 332 2.0 8.0 0.00 0.00 0.00 33 1008.1
20260506004025 77 319 2.0 8.0 0.00 0.00 0.00 32 1008.1
20260506003525 77 302 3.0 8.0 0.00 0.00 0.00 32 1008.0
20260506003025 77 316 3.0 6.0 0.00 0.00 0.00 32 1008.0
20260506002528 77 305 2.0 6.0 0.00 0.00 0.00 31 1007.9
20260506002024 78 302 3.0 6.0 0.00 0.00 0.00 31 1007.9
20260506001524 78 303 2.0 7.0 0.00 0.00 0.00 30 1007.9
20260506001024 78 329 2.0 7.0 0.00 0.00 0.00 30 1007.8
20260506000524 78 299 3.0 6.0 0.00 0.00 0.00 29 1007.8
20260506000023 78 297 3.0 6.0 0.00 0.00 0.00 29 1007.8
20260505235523 78 300 3.0 8.0 0.00 0.00 0.00 28 1007.8
20260505235023 79 293 4.0 8.0 0.00 0.00 0.00 27 1007.7
20260505234523 79 308 3.0 10.0 0.00 0.00 0.00 27 1007.7
20260505234022 79 312 6.0 10.0 0.00 0.00 0.00 26 1007.6
20260505233523 79 296 5.0 10.0 0.00 0.00 0.00 26 1007.7
20260505233022 79 321 5.0 10.0 0.00 0.00 0.00 26 1007.7
20260505232522 80 314 3.0 7.0 0.00 0.00 0.00 28 1007.7
20260505232023 80 305 3.0 7.0 0.00 0.00 0.00 28 1007.6
20260505231527 80 302 3.0 8.0 0.00 0.00 0.00 28 1007.6
20260505231021 80 289 3.0 8.0 0.00 0.00 0.00 28 1007.6
20260505230521 80 291 3.0 7.0 0.00 0.00 0.00 28 1007.6
20260505230023 80 305 3.0 8.0 0.00 0.00 0.00 27 1007.7
20260505225522 80 303 5.0 8.0 0.00 0.00 0.00 27 1007.7
20260505225022 81 304 4.0 8.0 0.00 0.00 0.00 26 1007.7
20260505224527 81 316 3.0 8.0 0.00 0.00 0.00 27 1007.7
20260505224021 81 326 5.0 9.0 0.00 0.00 0.00 26 1007.6
20260505223520 81 305 5.0 9.0 0.00 0.00 0.00 26 1007.6
20260505223020 81 302 5.0 8.0 0.00 0.00 0.00 26 1007.7
20260505222519 81 307 4.0 9.0 0.00 0.00 0.00 27 1007.9
20260505222019 81 315 6.0 9.0 0.00 0.00 0.00 27 1007.8
20260505221519 81 305 2.0 8.0 0.00 0.00 0.00 28 1007.7
20260505221018 81 318 3.0 10.0 0.00 0.00 0.00 28 1007.8
20260505220518 81 307 5.0 10.0 0.00 0.00 0.00 27 1007.7
20260505220019 81 307 3.0 10.0 0.00 0.00 0.00 27 1007.6
20260505215518 82 294 5.0 10.0 0.00 0.00 0.00 27 1007.5
20260505215018 82 333 4.0 9.0 0.00 0.00 0.00 27 1007.5
20260505214518 82 314 3.0 9.0 0.00 0.00 0.00 27 1007.6
20260505214018 82 320 3.0 7.0 0.00 0.00 0.00 27 1007.4
20260505213517 82 295 4.0 11.0 0.00 0.00 0.00 27 1007.5
20260505213019 82 306 4.0 11.0 0.00 0.00 0.00 27 1007.4
20260505212520 82 299 4.0 10.0 0.00 0.00 0.00 27 1007.5
20260505212016 82 305 3.0 11.0 0.00 0.00 0.00 27 1007.5
20260505211533 82 313 6.0 11.0 0.00 0.00 0.00 26 1007.5
20260505211016 82 305 6.0 11.0 0.00 0.00 0.00 27 1007.5
20260505210516 83 316 4.0 9.0 0.00 0.00 0.00 27 1007.5
20260505210016 82 309 4.0 9.0 0.00 0.00 0.00 26 1007.6
20260505205517 82 295 5.0 10.0 0.00 0.00 0.00 26 1007.5
20260505205015 82 313 5.0 10.0 0.00 0.00 0.00 26 1007.5
20260505204514 83 305 4.0 10.0 0.00 0.00 0.00 27 1007.5
20260505204014 83 345 3.0 9.0 0.00 0.00 0.00 26 1007.5
20260505203514 83 296 5.0 8.0 0.00 0.00 0.00 26 1007.4
20260505203014 83 289 4.0 11.0 0.00 0.00 0.00 25 1007.5
20260505202514 83 329 6.0 11.0 0.00 0.00 0.00 25 1007.5
20260505202013 83 299 4.0 9.0 0.00 0.00 0.00 24 1007.4
20260505201512 83 314 4.0 12.0 0.00 0.00 0.00 25 1007.5
20260505201015 83 322 5.0 11.0 0.00 0.00 0.00 24 1007.5
20260505200512 84 302 5.0 10.0 0.00 0.00 0.00 24 1007.5
20260505200011 84 316 4.0 12.0 0.00 0.00 0.00 24 1007.6
20260505195510 84 302 8.0 12.0 0.00 0.00 0.00 24 1007.6
20260505195009 83 300 6.0 13.0 0.00 0.00 0.00 25 1007.6
20260505194509 84 297 7.0 13.0 0.00 0.00 0.00 25 1007.7
20260505194010 84 312 5.0 10.0 0.00 0.00 0.00 25 1007.8
20260505193508 83 273 5.0 12.0 0.00 0.00 0.00 25 1007.8
20260505193007 84 326 5.0 9.0 0.00 0.00 0.00 26 1007.9
20260505192506 84 298 4.0 8.0 0.00 0.00 0.00 26 1007.9
20260505192005 85 317 4.0 7.0 0.00 0.00 0.00 26 1007.9
20260505191504 84 311 3.0 10.0 0.00 0.00 0.00 27 1008.0
20260505191002 83 297 3.0 10.0 0.00 0.00 0.00 28 1008.2
20260505190502 84 305 4.0 8.0 0.00 0.00 0.00 28 1008.2
20260505190103 83 314 3.0 9.0 0.00 0.00 0.00 28 1008.4
20260505185600 84 286 4.0 9.0 0.00 0.00 0.00 28 1008.4
20260505185059 84 315 3.0 10.0 0.00 0.00 0.00 29 1008.4
20260505184559 84 295 5.0 10.0 0.00 0.00 0.00 28 1008.5
20260505184057 83 300 2.0 9.0 0.00 0.00 0.00 30 1008.6
20260505183556 83 318 4.0 11.0 0.00 0.00 0.00 30 1008.6
20260505183055 83 288 3.0 11.0 0.00 0.00 0.00 29 1008.7
20260505182557 83 308 3.0 10.0 0.00 0.00 0.00 31 1008.6
20260505182056 83 302 3.0 10.0 0.00 0.00 0.00 31 1008.7
20260505181553 83 290 5.0 9.0 0.00 0.00 0.00 30 1008.8
20260505181052 83 292 3.0 6.0 0.00 0.00 0.00 31 1009.0
20260505180551 84 319 3.0 7.0 0.00 0.00 0.00 30 1009.1
20260505180055 83 290 1.0 7.0 0.00 0.00 0.00 33 1009.1
20260505175549 83 285 2.0 8.0 0.00 0.00 0.00 31 1009.2
20260505175050 82 293 4.0 8.0 0.00 0.00 0.00 31 1009.2
20260505174548 83 298 4.0 8.0 0.00 0.00 0.00 31 1009.4
20260505174047 83 321 4.0 8.0 0.00 0.00 0.00 30 1009.4
20260505173547 83 305 2.0 6.0 0.00 0.00 0.00 31 1009.4
20260505173046 83 235 1.0 8.0 0.00 0.00 0.00 32 1009.3
20260505172549 82 60 1.0 8.0 0.00 0.00 0.00 33 1009.4
20260505172045 82 305 4.0 7.0 0.00 0.00 0.00 31 1009.5
20260505171545 82 305 2.0 5.0 0.00 0.00 0.00 32 1009.6
20260505171045 82 300 2.0 8.0 0.00 0.00 0.00 31 1009.6
20260505170544 82 301 3.0 8.0 0.00 0.00 0.00 31 1009.7
20260505170044 82 312 1.0 6.0 0.00 0.00 0.00 32 1009.8
20260505165545 82 327 0.0 6.0 0.00 0.00 0.00 33 1009.9
20260505165042 81 311 2.0 6.0 0.00 0.00 0.00 32 1009.9
20260505164641 81 156 1.0 6.0 0.00 0.00 0.00 33 1010.0
20260505164043 81 290 3.0 11.0 0.00 0.00 0.00 32 1010.1
20260505163540 81 217 1.0 8.0 0.00 0.00 0.00 34 1010.1
20260505163040 80 312 1.0 8.0 0.00 0.00 0.00 33 1010.2
20260505162543 80 302 2.0 5.0 0.00 0.00 0.00 33 1010.4
20260505162038 80 303 2.0 8.0 0.00 0.00 0.00 33 1010.4
20260505161540 80 307 1.0 8.0 0.00 0.00 0.00 34 1010.5
20260505161038 80 300 2.0 8.0 0.00 0.00 0.00 34 1010.6
20260505160539 80 286 2.0 7.0 0.00 0.00 0.00 34 1010.6
20260505153038 79 300 1.0 4.0 0.00 0.00 0.00 39 1010.9
20260505152533 78 315 0.0 4.0 0.00 0.00 0.00 38 1010.8
20260505152033 78 294 1.0 5.0 0.00 0.00 0.00 40 1010.8
20260505151539 78 291 2.0 5.0 0.00 0.00 0.00 38 1010.8
20260505151031 78 304 1.0 5.0 0.00 0.00 0.00 40 1010.8
20260505150530 78 315 1.0 4.0 0.00 0.00 0.00 39 1010.8
20260505140521 73 296 1.0 3.0 0.00 0.00 0.00 46 1011.0
20260505125002 67 301 0.0 4.0 0.00 0.00 0.00 54 1011.3
20260505124603 67 309 1.0 4.0 0.00 0.00 0.00 54 1011.4
20260505124102 67 296 1.0 3.0 0.00 0.00 0.00 54 1011.4
20260505123557 66 296 0.0 2.0 0.00 0.00 0.00 55 1011.4
20260505123058 65 301 0.0 4.0 0.00 0.00 0.00 55 1011.4
20260505122557 65 308 1.0 5.0 0.00 0.00 0.00 55 1011.4
20260505122057 64 297 2.0 5.0 0.00 0.00 0.00 56 1011.4
20260505121600 64 294 1.0 4.0 0.00 0.00 0.00 56 1011.4
20260505121057 64 302 1.0 4.0 0.00 0.00 0.00 57 1011.4
20260505120557 64 304 2.0 4.0 0.00 0.00 0.00 56 1011.3
20260505120111 63 307 1.0 4.0 0.00 0.00 0.00 57 1011.3
20260505115555 63 319 2.0 5.0 0.00 0.00 0.00 57 1011.3
20260505115055 63 300 2.0 5.0 0.00 0.00 0.00 58 1011.1
20260505114557 62 307 2.0 5.0 0.00 0.00 0.00 58 1011.1
20260505114054 62 303 3.0 5.0 0.00 0.00 0.00 58 1011.1
20260505113557 62 311 1.0 6.0 0.00 0.00 0.00 59 1011.0
20260505113101 61 308 2.0 6.0 0.00 0.00 0.00 59 1011.1
20260505112551 61 297 2.0 6.0 0.00 0.00 0.00 60 1011.0
20260505112052 61 312 3.0 6.0 0.00 0.00 0.00 59 1011.0
20260505111552 61 293 2.0 6.0 0.00 0.00 0.00 60 1011.0
20260505111051 61 297 2.0 6.0 0.00 0.00 0.00 60 1010.9
20260505110550 61 305 2.0 5.0 0.00 0.00 0.00 60 1010.8
20260505102043 60 290 3.0 6.0 0.00 0.00 0.00 61 1010.2
20260505101546 60 311 2.0 5.0 0.00 0.00 0.00 61 1010.2
20260505101043 60 300 2.0 5.0 0.00 0.00 0.00 62 1010.2
20260505100543 60 313 2.0 5.0 0.00 0.00 0.00 62 1010.2
20260505100043 60 293 1.0 5.0 0.00 0.00 0.00 62 1010.2
20260505095542 60 303 2.0 5.0 0.00 0.00 0.00 62 1010.2
20260505095043 60 307 2.0 6.0 0.00 0.00 0.00 62 1010.2
20260505094540 60 299 2.0 6.0 0.00 0.00 0.00 62 1010.1
20260505094040 60 300 3.0 6.0 0.00 0.00 0.00 62 1010.1
20260505093540 60 293 2.0 6.0 0.00 0.00 0.00 62 1010.0
20260505093051 60 308 3.0 6.0 0.00 0.00 0.00 62 1010.0
20260505092539 60 312 2.0 5.0 0.00 0.00 0.00 62 1010.0
20260505092044 60 298 2.0 5.0 0.00 0.00 0.00 62 1010.0
20260505091539 61 310 2.0 5.0 0.00 0.00 0.00 62 1009.9
20260505091038 61 299 2.0 4.0 0.00 0.00 0.00 63 1010.0
20260505090540 60 284 2.0 4.0 0.00 0.00 0.00 63 1010.0
20260505090038 60 304 1.0 4.0 0.00 0.00 0.00 63 1010.0
20260505085542 60 313 2.0 4.0 0.00 0.00 0.00 63 1010.0
20260505085040 60 321 1.0 4.0 0.00 0.00 0.00 64 1010.0
20260505084537 60 308 1.0 3.0 0.00 0.00 0.00 64 1010.1
20260505084035 60 302 0.0 3.0 0.00 0.00 0.00 64 1010.0
20260505083538 61 306 0.0 4.0 0.00 0.00 0.00 64 1009.9
20260505083040 61 308 1.0 4.0 0.00 0.00 0.00 64 1009.9
20260505082536 61 309 2.0 4.0 0.00 0.00 0.00 63 1009.9
20260505082035 61 295 2.0 4.0 0.00 0.00 0.00 63 1009.9
20260505081535 61 300 2.0 4.0 0.00 0.00 0.00 63 1009.9
20260505081035 61 301 2.0 4.0 0.00 0.00 0.00 64 1009.9
20260505080533 61 295 1.0 4.0 0.00 0.00 0.00 64 1009.9